Location: Athlone
(33.9672°S, 18.5021°E)
Time: 01:40:46
(UTC+00:00)

Daily predictions for brighter satellites

Satellite Brightness Start Highest point End
(mag) Time Altitude Azimuth Time Altitude Azimuth Time Altitude Azimuth
CBERS-1 4.4 00:10:07 60° SSW 00:10:07 60° SSW 00:14:20 10° SSW
Cosmos 1980 Rocket 3.5 00:10:27 29° ENE 00:10:48 29° ENE 00:15:35 10° SE
ISS -0.7 00:15:22 14° SSW 00:15:22 14° SSW 00:16:35 10° S
Cosmos 1727 Rocket 3.9 00:16:22 72° W 00:16:26 72° W 00:22:42 10° S
Okean 3 Rocket 4.3 00:14:14 10° S 00:17:50 52° SSE 00:17:50 52° SSE
GP-B 3.9 00:15:02 10° SSE 00:18:44 50° SE 00:18:44 50° SE
CZ-4C R/B 4.2 00:23:21 10° SSE 00:27:13 53° ESE 00:27:13 53° ESE
Cosmos 1538 Rocket 4.3 00:31:37 55° SW 00:31:37 55° SW 00:36:24 10° S
DNEPR-1 R/B 4.0 00:26:39 10° SSW 00:31:49 86° WNW 00:31:59 84° NNW
Resurs 1-4 Rocket 3.6 00:33:51 24° WSW 00:33:51 24° WSW 00:36:42 10° SW
Cosmos 2297 Rocket 2.2 00:27:40 10° SSW 00:33:24 81° ESE 00:34:13 66° NE
Meteor 2-10 Rocket 3.6 00:33:29 74° NNE 00:33:56 80° E 00:39:29 10° S
IRS-P3 4.4 00:37:37 55° WSW 00:37:37 55° WSW 00:42:20 10° SSW
Cosmos 2227 Rocket 2.2 00:31:28 10° SSW 00:37:12 79° ESE 00:38:21 58° NE
Cosmos 1455 3.6 00:38:42 34° SSW 00:38:42 34° SSW 00:41:08 10° S
ARIANE 5 R/B 2.5 00:37:02 76° NE 00:37:26 82° ESE 00:42:38 10° S
CZ-2D R/B 3.7 00:39:50 23° WSW 00:39:50 23° WSW 00:42:35 10° SW
Cosmos 1697 Rocket 2.5 00:39:47 73° WNW 00:40:07 76° WSW 00:45:49 10° SSE
BREEZE-M DEB (TANK) 3.7 00:44:57 53° SW 00:45:23 56° SSW 00:54:21 10° SE
Cosmos 1766 Rocket 4.1 00:43:38 10° SSW 00:47:00 49° SW 00:47:00 49° SW
Cosmos 2219 3.7 00:43:12 10° SSW 00:47:56 44° W 00:47:56 44° W
SL-16 R/B 3.5 00:43:33 10° SSE 00:49:27 40° E 00:52:31 25° NNE
Cosmos 2100 Rocket 3.9 00:46:22 10° S 00:52:42 82° W 00:54:19 52° N
deb Chang Zheng 4 3.5 00:54:09 80° SW 00:54:09 80° SW 00:58:23 10° SSW
Cosmos 2173 Rocket 3.9 00:47:34 10° S 00:54:00 86° W 00:55:56 48° N
USA 215 4.0 00:54:48 10° ESE 01:00:57 40° NE 01:03:19 31° N
ADEOS II 2.4 01:03:46 47° W 01:03:46 47° W 01:08:45 10° SSW
H-2A R/B 2.1 01:04:26 58° NNW 01:05:12 68° NNE 01:19:49 10° E
Spot 4 Rocket 4.0 01:08:50 57° NW 01:09:26 61° WNW 01:14:36 10° SSW
COSMOS 2455 4.2 01:07:09 19° NNE 01:10:20 30° ENE 01:15:31 10° SE
Cosmos 2151 4.5 01:06:43 10° SSW 01:09:16 25° WSW 01:09:16 25° WSW
IKONOS-2 4.5 01:06:50 10° S 01:11:09 68° WSW 01:11:21 67° W
Cosmos 724 4.3 01:05:18 10° SSW 01:11:33 88° WNW 01:17:45 10° NNE
Cosmos 1825 2.7 01:08:19 10° SSW 01:11:20 48° SW 01:11:20 48° SW
Cosmos 1459 Rocket 4.0 01:06:05 10° SSW 01:12:10 61° W 01:13:57 44° NNW
Cosmos 1408 4.1 01:10:40 10° SSW 01:12:47 26° SW 01:12:47 26° SW
Cosmos 2221 2.3 01:14:38 72° NW 01:14:59 77° W 01:19:19 10° S
GOES 2 Rocket 4.2 01:17:52 30° NNE 01:17:52 30° NNE 01:21:54 10° ENE
Cosmos 1864 Rocket 4.5 01:14:09 10° S 01:20:22 83° E 01:24:30 22° N
Cosmos 2082 3.6 01:16:16 10° SSW 01:22:00 71° WNW 01:25:03 28° N
Cosmos 1680 Rocket 3.7 01:24:45 43° WNW 01:26:06 55° WSW 01:31:20 10° S
Cosmos 2112 Rocket 4.1 01:24:58 44° NW 01:26:30 65° WSW 01:31:48 10° S
Cosmos 1842 Rocket 4.4 01:31:42 33° W 01:31:56 33° W 01:36:01 10° SSW
H-2A R/B 3.3 01:27:59 10° SSE 01:32:18 40° E 01:35:20 17° NNE
Cosmos 1802 Rocket 4.3 01:28:42 10° SSW 01:34:53 49° W 01:37:38 31° NW
Chunghua 1 4.5 01:35:04 60° NNW 01:35:12 61° NNW 01:39:00 10° ENE
DELTA 2 R/B (1) 4.3 01:30:57 10° WSW 01:36:29 53° S 01:41:58 10° E
ERS-2 3.5 01:37:27 10° SSW 01:40:33 25° WSW 01:40:35 25° WSW
MOZ.5/SAFIR/RUBIN 5/SL-8 4.2 01:39:22 10° S 01:43:55 48° WSW 01:45:35 34° NW
IDEFIX/ARIANE 42P 2.5 01:39:31 13° NNE 01:44:14 88° WNW 01:49:36 10° SSW
Cosmos 1805 Rocket 4.0 01:41:58 10° S 01:46:23 62° E 01:50:41 10° NNE
Atlas Centaur 2 2.2 01:45:49 33° NNW 01:47:13 42° N 01:51:15 10° E
Cosmos 2360 Rocket 4.2 01:44:34 10° NNE 01:48:54 23° E 01:53:15 10° SE
Cosmos 1743 Rocket 4.1 01:46:27 10° SSW 01:50:34 39° W 01:51:42 33° NW
ASTRO E2 2.9 01:49:42 39° NW 01:50:40 49° N 01:54:35 10° ENE
Cosmos 2016 Rocket 4.4 01:45:03 10° SSW 01:50:53 42° W 01:54:06 24° NW
UNK 4.2 01:47:30 10° S 01:51:55 44° WSW 01:53:43 30° NW
IUS-1 SRM-2 3.5 01:53:56 18° NNE 01:53:56 18° NNE 01:56:36 10° ENE
Cosmos 1980 Rocket 3.2 01:52:13 23° WNW 01:54:38 32° WSW 01:59:39 10° S
CZ-4C R/B 4.3 01:51:39 10° SSE 01:55:10 39° E 01:58:15 12° NNE
STARLINK-67 2.8 01:55:16 47° NNE 01:55:32 50° NE 01:58:07 10° SE
ATLAS 2AS CENTAUR R/B 3.5 01:53:00 11° N 01:58:29 39° ENE 02:04:08 10° SE
PAYLOAD A 4.5 01:54:45 10° NNE 01:59:41 60° ESE 02:04:30 10° S
H-2A R/B 3.5 01:56:56 10° NE 02:00:38 43° ESE 02:04:21 10° S
CZ-2C R/B 4.1 02:01:59 23° W 02:02:03 23° W 02:05:15 10° SW
Cosmos 1725 Rocket 4.4 01:57:31 10° SSW 02:03:23 43° W 02:07:41 18° NNW
Cosmos 1624 Rocket 4.2 01:58:31 10° SSW 02:03:48 76° ESE 02:09:03 10° NNE
CZ-4B R/B 4.2 02:02:59 10° ESE 02:04:26 13° E 02:05:52 10° ENE
Meteor 2-3 Rocket 4.4 02:00:01 10° SSW 02:05:17 37° W 02:08:46 19° NNW
Cosmos 2263 Rocket 3.3 01:59:51 10° S 02:05:22 47° ESE 02:10:49 10° NE
Cosmos 2056 Rocket 3.6 02:03:32 10° SSW 02:08:55 82° ESE 02:14:08 10° NNE
Shenzhou-11 Module 1.8 02:08:25 39° NNW 02:09:11 63° NNE 02:11:53 10° ESE
Cosmos 1356 Rocket 4.5 02:08:38 23° WNW 02:09:56 27° WSW 02:13:25 10° SSW
Cosmos 2227 4.4 02:05:14 10° SSW 02:10:56 74° ESE 02:16:38 10° NNE
Cosmos 2322 Rocket 2.3 02:07:49 15° NNW 02:12:33 85° ENE 02:18:19 10° SSE
SAR-Lupe-4 3.5 02:10:05 10° SSE 02:13:44 86° WSW 02:16:30 16° NNW
SL-4 R/B 3.1 02:10:54 17° NNW 02:14:16 44° NE 02:18:36 10° ESE
CZ-2C R/B 2.7 02:10:59 10° NNE 02:15:39 69° ESE 02:20:33 10° S
SL-16 R/B 2.2 02:13:33 17° NNW 02:18:02 73° WSW 02:23:46 10° SSE
Cosmos 2227 Rocket 4.1 02:19:23 10° W 02:20:05 10° W 02:20:05 10° W
Cosmos 1862 3.5 02:17:08 10° S 02:21:11 74° E 02:25:10 10° N
Cosmos 1633 2.5 02:17:44 10° S 02:21:24 73° W 02:25:01 10° N
Meteor 2-20 Rocket 4.4 02:15:25 10° NNW 02:21:29 71° W 02:27:38 10° S
ATLAS 2A CENTAUR R/B 2.3 02:23:40 11° N 02:23:40 11° N 02:23:57 10° NNE
ADEOS 4.1 02:24:10 10° NNW 02:29:00 38° W 02:33:55 10° SSW
Cosmos 44 4.3 02:23:43 10° SSW 02:29:02 56° ESE 02:34:10 10° NE
Cosmos 1666 Rocket 3.6 02:26:17 10° S 02:30:50 80° W 02:35:19 10° N
SL-08 R/B 3.5 02:26:28 10° S 02:31:06 57° WSW 02:35:45 10° NNW
SL-16 R/B 3.6 02:27:30 10° S 02:32:46 29° WSW 02:37:37 12° WNW
Cosmos 1151 Rocket 3.0 02:29:52 10° N 02:34:09 85° W 02:38:30 10° S
Meteor 1-28 Rocket 4.1 02:31:21 10° SSE 02:35:05 50° E 02:38:44 10° N
Cosmos 1606 3.8 02:34:52 10° NNE 02:38:38 47° E 02:42:27 10° SSE
MSX 4.3 02:33:45 10° NNW 02:39:08 40° W 02:44:36 10° SSW
Cosmos 1400 Rocket 4.2 02:36:16 10° NNE 02:39:53 38° E 02:43:35 10° SSE
USA 215 3.8 02:37:36 10° SSE 02:43:55 50° SW 02:50:13 10° WNW
Cosmos 1484 Rocket 3.8 02:48:12 10° NNE 02:51:53 51° ESE 02:55:34 10° S
Meteor 1-31 Rocket 2.8 02:49:05 10° N 02:53:00 65° W 02:56:56 10° SSW
Cosmos 1933 3.4 02:50:55 10° N 02:55:00 85° W 02:59:11 10° S
Milstar 3 Cent rocket 4.1 02:43:21 10° NW 02:55:09 39° NNE 03:01:24 10° E
Cosmos 1452 Rocket 3.8 02:50:16 10° SSW 02:55:35 77° ESE 03:00:52 10° NNE
COSMOS 2455 3.7 02:50:36 10° WNW 02:56:05 36° WSW 03:01:38 10° S
CZ-3 R/B 4.3 02:59:45 10° WSW 03:37:31 43° NW 03:47:41 10° NNE
